When you browse on this site, cookies collect data to enhance your experience and personalize the content and advertising you see.
Visit our Privacy Policy to learn more. By continuing to use the site, you agree to this use of cookies and data.
  • In Österreich
  • Länderverzeichnis
  • Für 7 Tage
  • Wassertemperatur
  • Wetterkarte
  • News
  • Widgets
  • user-avatar
    Anmelden

    Stündliche Wetter Duala

    Heute, 30 Mai, Samstag

    Zeit Temperatur Niederschläge Wind Luftdruck Luftfeuchtigkeit
    00:00 +25°C° 2.4 mm 0 m/S 758 mmHg 94%
    01:00 +25°C° 2.4 mm 0 m/S 758 mmHg 94%
    02:00 +25°C° 2.2 mm 0 m/S 758 mmHg 94%
    03:00 +25°C° 2.2 mm 0 m/S 757 mmHg 95%
    04:00 +25°C° 2.2 mm 0 m/S 757 mmHg 95%
    05:00 +25°C° 0.7 mm 0 m/S 757 mmHg 95%
    06:00 +25°C° 0.7 mm 0 m/S 758 mmHg 94%
    07:00 +25°C° 0.7 mm 0 m/S 758 mmHg 94%
    08:00 +26°C° 0.3 mm 0 m/S 758 mmHg 90%
    09:00 +27°C° 0.3 mm 0 m/S 759 mmHg 86%
    10:00 +28°C° 0.3 mm 0 m/S 759 mmHg 83%
    11:00 +31°C° 0.1 mm 1 m/S 758 mmHg 77%
    12:00 +32°C° 0.1 mm 1 m/S 758 mmHg 70%
    13:00 +34°C° 0.1 mm 2 m/S 758 mmHg 64%
    14:00 +34°C° 0 mm 2 m/S 757 mmHg 66%
    15:00 +33°C° 0 mm 3 m/S 757 mmHg 68%
    16:00 +33°C° 0 mm 3 m/S 756 mmHg 69%
    17:00 +31°C° 0 mm 3 m/S 756 mmHg 75%
    18:00 +29°C° 0 mm 3 m/S 757 mmHg 80%
    19:00 +28°C° 0 mm 2 m/S 757 mmHg 85%
    20:00 +28°C° 0 mm 2 m/S 758 mmHg 87%
    21:00 +27°C° 0 mm 1 m/S 758 mmHg 89%
    22:00 +27°C° 0 mm 1 m/S 758 mmHg 91%
    23:00 +27°C° 0.1 mm 1 m/S 758 mmHg 92%

    Morgen, 31 Mai, Sonntag

    Zeit Temperatur Niederschläge Wind Luftdruck Luftfeuchtigkeit
    00:00 +27°C° 0.1 mm 1 m/S 758 mmHg 92%
    01:00 +25°C° 0.1 mm 0 m/S 758 mmHg 93%
    02:00 +27°C° 0.1 mm 1 m/S 758 mmHg 94%
    03:00 +26°C° 0.1 mm 1 m/S 758 mmHg 94%
    04:00 +26°C° 0.1 mm 1 m/S 758 mmHg 95%
    05:00 +26°C° 0 mm 1 m/S 758 mmHg 93%
    06:00 +27°C° 0 mm 1 m/S 758 mmHg 92%
    07:00 +27°C° 0 mm 1 m/S 759 mmHg 91%
    08:00 +27°C° 0 mm 0 m/S 759 mmHg 82%
    09:00 +29°C° 0 mm 0 m/S 759 mmHg 73%
    10:00 +31°C° 0 mm 0 m/S 759 mmHg 63%
    11:00 +33°C° 0.2 mm 1 m/S 759 mmHg 63%
    12:00 +34°C° 0.2 mm 2 m/S 758 mmHg 63%
    13:00 +34°C° 0.2 mm 2 m/S 758 mmHg 63%
    14:00 +34°C° 0.4 mm 2 m/S 757 mmHg 66%
    15:00 +33°C° 0.4 mm 3 m/S 757 mmHg 70%
    16:00 +33°C° 0.4 mm 3 m/S 757 mmHg 73%
    17:00 +31°C° 0.3 mm 3 m/S 757 mmHg 77%
    18:00 +30°C° 0.3 mm 2 m/S 757 mmHg 82%
    19:00 +28°C° 0.3 mm 2 m/S 758 mmHg 87%
    20:00 +28°C° 1.7 mm 2 m/S 758 mmHg 88%
    21:00 +28°C° 1.7 mm 2 m/S 759 mmHg 90%
    22:00 +27°C° 1.7 mm 1 m/S 759 mmHg 92%
    23:00 +27°C° 0.2 mm 1 m/S 759 mmHg 92%

    übermorgen, 1 Juni, Montag

    Zeit Temperatur Niederschläge Wind Luftdruck Luftfeuchtigkeit
    00:00 +27°C° 0.2 mm 1 m/S 759 mmHg 93%
    01:00 +27°C° 0.2 mm 1 m/S 759 mmHg 93%
    02:00 +27°C° 0.1 mm 1 m/S 759 mmHg 94%
    03:00 +27°C° 0.1 mm 1 m/S 759 mmHg 94%
    04:00 +24°C° 0.1 mm 0 m/S 758 mmHg 95%
    05:00 +25°C° 0.2 mm 0 m/S 759 mmHg 94%
    06:00 +25°C° 0.2 mm 0 m/S 759 mmHg 94%
    07:00 +25°C° 0.2 mm 0 m/S 759 mmHg 94%
    08:00 +28°C° 0.2 mm 1 m/S 760 mmHg 89%
    09:00 +30°C° 0.2 mm 1 m/S 760 mmHg 84%
    10:00 +31°C° 0.2 mm 1 m/S 760 mmHg 79%
    11:00 +32°C° 0.3 mm 1 m/S 759 mmHg 75%
    12:00 +32°C° 0.3 mm 1 m/S 759 mmHg 71%
    13:00 +34°C° 0.3 mm 2 m/S 758 mmHg 67%
    14:00 +34°C° 0.5 mm 2 m/S 758 mmHg 70%
    15:00 +32°C° 0.5 mm 2 m/S 757 mmHg 72%
    16:00 +33°C° 0.5 mm 3 m/S 756 mmHg 74%
    17:00 +31°C° 0.1 mm 2 m/S 757 mmHg 79%
    18:00 +29°C° 0.1 mm 2 m/S 757 mmHg 83%
    19:00 +28°C° 0.1 mm 2 m/S 757 mmHg 87%
    20:00 +28°C° 0.1 mm 2 m/S 758 mmHg 89%
    21:00 +28°C° 0.1 mm 2 m/S 758 mmHg 90%
    22:00 +28°C° 0.1 mm 2 m/S 758 mmHg 91%
    23:00 +27°C° 1 mm 1 m/S 758 mmHg 92%

    2 Juni, Dienstag

    Zeit Temperatur Niederschläge Wind Luftdruck Luftfeuchtigkeit
    00:00 +27°C° 1 mm 1 m/S 759 mmHg 93%
    01:00 +25°C° 1 mm 0 m/S 759 mmHg 93%
    02:00 +25°C° 0.5 mm 0 m/S 758 mmHg 93%
    03:00 +25°C° 0.5 mm 0 m/S 758 mmHg 93%
    04:00 +25°C° 0.5 mm 0 m/S 758 mmHg 93%
    05:00 +25°C° 0 mm 0 m/S 758 mmHg 93%
    06:00 +25°C° 0 mm 0 m/S 759 mmHg 92%
    07:00 +25°C° 0 mm 0 m/S 759 mmHg 92%
    08:00 +27°C° 0.1 mm 0 m/S 759 mmHg 86%
    09:00 +28°C° 0.1 mm 0 m/S 760 mmHg 81%
    10:00 +29°C° 0.1 mm 0 m/S 760 mmHg 75%
    11:00 +32°C° 0.3 mm 1 m/S 759 mmHg 73%
    12:00 +32°C° 0.3 mm 2 m/S 758 mmHg 72%
    13:00 +32°C° 0.3 mm 2 m/S 757 mmHg 70%
    14:00 +33°C° 0.4 mm 3 m/S 757 mmHg 71%
    15:00 +33°C° 0.4 mm 3 m/S 756 mmHg 73%
    16:00 +33°C° 0.4 mm 4 m/S 756 mmHg 74%
    17:00 +30°C° 0.2 mm 3 m/S 756 mmHg 79%
    18:00 +29°C° 0.2 mm 3 m/S 757 mmHg 83%
    19:00 +28°C° 0.2 mm 2 m/S 757 mmHg 88%
    20:00 +28°C° 0.9 mm 2 m/S 758 mmHg 89%
    21:00 +28°C° 0.9 mm 2 m/S 758 mmHg 91%
    22:00 +27°C° 0.9 mm 2 m/S 758 mmHg 92%
    23:00 +27°C° 0.8 mm 1 m/S 758 mmHg 93%

    3 Juni, Mittwoch

    Zeit Temperatur Niederschläge Wind Luftdruck Luftfeuchtigkeit
    00:00 +27°C° 0.8 mm 1 m/S 758 mmHg 93%
    01:00 +25°C° 0.8 mm 0 m/S 758 mmHg 93%
    02:00 +25°C° 0.5 mm 0 m/S 758 mmHg 93%
    03:00 +25°C° 0.5 mm 0 m/S 757 mmHg 93%
    04:00 +25°C° 0.5 mm 0 m/S 757 mmHg 93%
    05:00 +25°C° 0 mm 0 m/S 758 mmHg 93%
    06:00 +27°C° 0 mm 1 m/S 758 mmHg 93%
    07:00 +27°C° 0 mm 1 m/S 758 mmHg 93%
    08:00 +28°C° 0.2 mm 1 m/S 759 mmHg 88%
    09:00 +30°C° 0.2 mm 1 m/S 759 mmHg 82%
    10:00 +29°C° 0.2 mm 0 m/S 759 mmHg 76%
    11:00 +31°C° 0.4 mm 1 m/S 759 mmHg 74%
    12:00 +32°C° 0.4 mm 2 m/S 758 mmHg 72%
    13:00 +33°C° 0.4 mm 3 m/S 757 mmHg 70%
    14:00 +33°C° 0.2 mm 3 m/S 757 mmHg 71%
    15:00 +31°C° 0.2 mm 3 m/S 756 mmHg 72%
    16:00 +31°C° 0.2 mm 2 m/S 756 mmHg 73%
    17:00 +30°C° 0 mm 2 m/S 756 mmHg 77%
    18:00 +29°C° 0 mm 2 m/S 757 mmHg 81%
    19:00 +28°C° 0 mm 2 m/S 757 mmHg 85%
    20:00 +28°C° 0 mm 2 m/S 757 mmHg 87%
    21:00 +28°C° 0 mm 2 m/S 758 mmHg 88%
    22:00 +28°C° 0 mm 1 m/S 758 mmHg 90%
    23:00 +28°C° 0.5 mm 1 m/S 758 mmHg 90%

    4 Juni, Donnerstag

    Zeit Temperatur Niederschläge Wind Luftdruck Luftfeuchtigkeit
    00:00 +27°C° 0.5 mm 1 m/S 758 mmHg 91%
    01:00 +27°C° 0.5 mm 1 m/S 758 mmHg 92%
    02:00 +25°C° 0.2 mm 0 m/S 758 mmHg 92%
    03:00 +25°C° 0.2 mm 0 m/S 758 mmHg 93%
    04:00 +25°C° 0.2 mm 0 m/S 757 mmHg 93%
    05:00 +25°C° 0 mm 0 m/S 758 mmHg 93%
    06:00 +25°C° 0 mm 0 m/S 758 mmHg 92%
    07:00 +25°C° 0 mm 0 m/S 759 mmHg 92%
    08:00 +29°C° 0.2 mm 1 m/S 759 mmHg 86%
    09:00 +30°C° 0.2 mm 1 m/S 759 mmHg 79%
    10:00 +31°C° 0.2 mm 1 m/S 760 mmHg 73%
    11:00 +31°C° 0.8 mm 2 m/S 759 mmHg 74%
    12:00 +31°C° 0.8 mm 2 m/S 758 mmHg 75%
    13:00 +31°C° 0.8 mm 3 m/S 758 mmHg 76%
    14:00 +31°C° 0.2 mm 3 m/S 757 mmHg 75%
    15:00 +31°C° 0.2 mm 3 m/S 757 mmHg 74%
    16:00 +31°C° 0.2 mm 3 m/S 756 mmHg 72%
    17:00 +30°C° 0 mm 3 m/S 757 mmHg 77%
    18:00 +29°C° 0 mm 2 m/S 757 mmHg 81%
    19:00 +28°C° 0 mm 2 m/S 758 mmHg 86%
    20:00 +28°C° 0 mm 2 m/S 758 mmHg 87%
    21:00 +28°C° 0 mm 2 m/S 758 mmHg 89%
    22:00 +28°C° 0 mm 1 m/S 758 mmHg 90%
    23:00 +28°C° 0.2 mm 1 m/S 758 mmHg 91%
    Mehr zeigen